ARTEMIS (EGNOS/PRN 124)

Last updated on Sat Nov 18 2017 00:19:16 GMT+0000 (Coordinated Universal Time)

1 26863U 01029A 17320.84505207 -.00000054 00000-0 00000+0 0 9990 2 26863 12.8634 31.4780 0006155 121.9541 295.8309 0.99288158 60972
UTC large
Height (km)
Speed (km/s)
/
Latitude / Longitude
Inclination (degrees)
Orbital Period (minutes)
Azimuth
Elevation
Range (km)
Doppler Factor

Next 0 passes for location: London (51.5072 / 0.1276)

Sorry there are no passes over London.
ARTEMIS (EGNOS/PRN 124)